ORBCOMM-X 1 21576U 91050C 26034.15335633 .00000339 00000+0 11301-3 0 9993 2 21576 98.3141 100.7207 0003334 189.2857 170.8272 14.43488905815433 ORBCOMM FM01 1 23545U 95017A 26034.52847668 .00008815 00000+0 83196-3 0 9993 2 23545 69.9598 215.6774 0005906 297.5737 62.4820 14.94027871647012 ORBCOMM FM02 1 23546U 95017B 26034.00707055 .00010060 00000+0 90355-3 0 9992 2 23546 69.9605 235.2669 0006990 302.5901 57.4581 14.95919740646616 ORBCOMM FM08 1 25112U 97084A 26034.24054772 .00002016 00000+0 59025-3 0 9997 2 25112 45.0147 337.8934 0007761 337.6911 22.3603 14.46844539474821 ORBCOMM FM10 1 25113U 97084B 26034.25901778 .00001935 00000+0 57138-3 0 9998 2 25113 45.0159 340.6270 0006292 309.6920 50.3377 14.46575793649968 ORBCOMM FM11 1 25114U 97084C 26034.23527022 .00001716 00000+0 51382-3 0 9995 2 25114 45.0145 341.8025 0007158 310.0496 49.9728 14.46313661474910 ORBCOMM FM12 1 25115U 97084D 26034.26347484 .00001849 00000+0 55036-3 0 9998 2 25115 45.0151 341.3924 0006204 308.7256 51.3041 14.46341290474712 ORBCOMM FM09 1 25116U 97084E 26034.24955082 .00001813 00000+0 54234-3 0 9996 2 25116 45.0157 342.6555 0007337 298.0334 61.9775 14.46170616474914 ORBCOMM FM05 1 25117U 97084F 26034.25754325 .00002007 00000+0 58658-3 0 9995 2 25117 45.0153 337.8044 0003814 313.2996 46.7538 14.46955402474068 ORBCOMM FM06 1 25118U 97084G 26034.25382897 .00002126 00000+0 61657-3 0 9992 2 25118 45.0148 337.2755 0002711 316.3357 192.1405 14.47128767474983 ORBCOMM FM07 1 25119U 97084H 26034.16823675 .00001718 00000+0 50586-3 0 9992 2 25119 45.0143 338.4304 0004616 309.1066 50.9375 14.47132597474966 ORBCOMM FM03 1 25158U 98007B 26034.52286558 .00001353 00000+0 51256-3 0 9994 2 25158 107.9664 251.0387 0045195 206.2909 153.5936 14.35220579457224 ORBCOMM FM04 1 25159U 98007C 26034.46774181 .00001167 00000+0 44739-3 0 9993 2 25159 107.9652 254.3036 0040906 203.8725 156.0518 14.35450589457403 ORBCOMM FM17 1 25413U 98046A 26033.98963133 .00000734 00000+0 30055-3 0 9997 2 25413 44.9931 247.8808 0002311 302.1926 57.8697 14.35669950436333 ORBCOMM FM18 1 25414U 98046B 26033.71844976 .00001432 00000+0 50199-3 0 9999 2 25414 44.9909 160.2364 0003095 355.1058 4.9760 14.39340111437455 ORBCOMM FM19 1 25415U 98046C 26034.39823362 .00001576 00000+0 54971-3 0 9992 2 25415 44.9924 159.3560 0001983 341.6688 65.9054 14.39164627437508 ORBCOMM FM20 1 25416U 98046D 26034.41092022 .00001072 00000+0 39930-3 0 9996 2 25416 44.9929 165.7809 0000574 190.5731 169.5105 14.37810398437538 ORBCOMM FM16 1 25417U 98046E 26034.46465609 .00001665 00000+0 57164-3 0 9994 2 25417 44.9925 153.8871 0002752 22.8779 337.2192 14.39727068437578 ORBCOMM FM15 1 25418U 98046F 26034.43023588 .00001430 00000+0 50138-3 0 9992 2 25418 44.9953 159.9066 0002476 24.0665 336.0299 14.39348925437558 ORBCOMM FM14 1 25419U 98046G 26034.38485822 .00001456 00000+0 50517-3 0 9999 2 25419 44.9943 157.6377 0001263 10.0173 350.0701 14.39779849437524 ORBCOMM FM13 1 25420U 98046H 26034.43397265 .00001276 00000+0 46123-3 0 9998 2 25420 44.9959 167.7673 0003674 355.4770 4.6045 14.38355392436525 ORBCOMM FM21 1 25475U 98053A 26034.08288327 .00000858 00000+0 32820-3 0 9999 2 25475 45.0073 255.5929 0001483 331.6919 28.3849 14.37934133430479 ORBCOMM FM22 1 25476U 98053B 26034.00973077 .00001025 00000+0 37384-3 0 9992 2 25476 45.0062 248.7920 0002914 316.7410 43.3210 14.39142487430512 ORBCOMM FM23 1 25477U 98053C 26034.04903968 .00000916 00000+0 34552-3 0 9991 2 25477 45.0073 257.4938 0002334 315.7759 44.2903 14.38189235430624 ORBCOMM FM24 1 25478U 98053D 26034.02999319 .00000993 00000+0 36581-3 0 9994 2 25478 45.0068 253.9956 0002148 325.9721 34.0990 14.38823601430686 ORBCOMM FM25 1 25479U 98053E 26034.00617458 .00000956 00000+0 35419-3 0 9992 2 25479 45.0060 252.4161 0004457 331.0741 28.9860 14.38792842430978 ORBCOMM FM26 1 25480U 98053F 26034.31580141 .00000801 00000+0 31045-3 0 9996 2 25480 45.0057 249.1576 0006357 346.4348 13.6328 14.37738352430901 ORBCOMM FM27 1 25481U 98053G 26034.33563943 .00001053 00000+0 38506-3 0 9999 2 25481 45.0044 250.9637 0000900 6.8422 353.2439 14.38833297430950 ORBCOMM FM28 1 25482U 98053H 26034.48766697 .00001183 00000+0 42605-3 0 9996 2 25482 45.0038 187.4703 0003566 28.3261 331.7781 14.38940606431666 ORBCOMM FM30 1 25980U 99065A 26033.37627259 .00000931 00000+0 35234-3 0 9990 2 25980 45.0315 79.6781 0004233 87.0309 273.1024 14.37899151367576 ORBCOMM FM31 1 25981U 99065B 26034.47225711 .00000997 00000+0 37465-3 0 9990 2 25981 45.0229 67.9310 0002318 145.3297 214.7703 14.37825138367282 ORBCOMM FM32 1 25982U 99065C 26034.18444057 .00000907 00000+0 35155-3 0 9990 2 25982 45.0156 87.4138 0004536 124.1993 235.9286 14.36888682367811 ORBCOMM FM33 1 25983U 99065D 26034.27791596 .00001225 00000+0 42425-3 0 9996 2 25983 45.0299 339.7308 0006564 148.3378 211.7868 14.40704684369386 ORBCOMM FM36 1 25984U 99065E 26034.46992874 .00001361 00000+0 48390-3 0 9998 2 25984 45.0390 74.2384 0002495 335.4019 24.6711 14.38881180367722 ORBCOMM FM35 1 25985U 99065F 26034.48211043 .00001111 00000+0 41239-3 0 9991 2 25985 45.0393 81.1124 0002433 149.2851 210.8140 14.37784975368068 ORBCOMM FM34 1 25986U 99065G 26034.45097428 .00000922 00000+0 35092-3 0 9997 2 25986 45.0389 81.7508 0001727 50.8738 309.2264 14.37707824368172 ORBCOMM FM38 1 33060U 08031A 26034.08530986 .00001984 00000+0 27076-3 0 9994 2 33060 48.4394 293.9206 0004850 314.6638 45.3883 14.82565676948995 ORBCOMM FM41 1 33061U 08031B 26034.18803803 .00001930 00000+0 26694-3 0 9993 2 33061 48.4436 302.0370 0004165 299.5020 230.6332 14.82105764948482 ORBCOMM FM29 1 33062U 08031C 26034.48954721 .00002264 00000+0 30722-3 0 9991 2 33062 48.4391 308.0826 0005806 300.8290 229.6539 14.82274328948449 ORBCOMM FM39 1 33063U 08031D 26034.11763838 .00002001 00000+0 28504-3 0 9993 2 33063 48.4410 336.7771 0006858 270.6234 89.3896 14.80673593948003 ORBCOMM FM37 1 33064U 08031E 26034.21962860 .00002044 00000+0 28922-3 0 9992 2 33064 48.4402 324.4547 0005432 289.9533 223.3755 14.80868372948276 ORBCOMM FM40 1 33065U 08031F 26034.50180694 .00002616 00000+0 34109-3 0 9991 2 33065 48.4412 303.0255 0006227 307.0405 223.1431 14.83466059948481 VESSELSAT 1 1 37840U 11058C 26034.49936837 .00000380 00000+0 62273-4 0 9995 2 37840 19.9610 134.1509 0013509 210.9037 149.0572 14.11412413739024 ORBCOMM FM109 1 40086U 14040A 26034.33473098 .00000905 00000+0 22861-3 0 9994 2 40086 47.0048 4.2497 0002409 312.2247 47.8434 14.58662954614804 ORBCOMM FM107 1 40087U 14040B 26034.35125748 .00000938 00000+0 23511-3 0 9992 2 40087 47.0066 5.0382 0001850 272.8538 87.2136 14.58740203614889 ORBCOMM FM106 1 40088U 14040C 26034.42334364 .00001297 00000+0 24404-3 0 9998 2 40088 47.0590 168.0719 0015639 61.3376 298.9086 14.70209063617490 ORBCOMM FM111 1 40089U 14040D 26034.19735167 .00003385 00000+0 38449-3 0 9993 2 40089 47.0018 347.2877 0028844 221.2023 138.6697 14.88118481624612 ORBCOMM FM104 1 40090U 14040E 26034.38967354 .00000647 00000+0 17948-3 0 9990 2 40090 47.0057 41.2685 0016101 185.3660 174.7054 14.57109890614331 ORBCOMM FM103 1 40091U 14040F 26034.26827593 .00000872 00000+0 22171-3 0 9992 2 40091 47.0068 6.1258 0002477 269.1832 90.8770 14.58647750597834 ORBCOMM FM114 1 41179U 15081A 26034.01027436 .00000598 00000+0 16347-3 0 9990 2 41179 47.0047 276.2935 0002704 301.9551 58.1072 14.58668131538166 ORBCOMM FM119 1 41180U 15081B 26034.41922442 .00000752 00000+0 19618-3 0 9993 2 41180 46.9990 183.7169 0000629 346.9280 13.1589 14.58610817539473 ORBCOMM FM105 1 41181U 15081C 26034.18092853 .00000228 00000+0 10864-3 0 9994 2 41181 46.9998 212.4097 0002142 271.4934 88.5701 14.45461416534160 ORBCOMM FM110 1 41182U 15081D 26033.99940544 .00000785 00000+0 20317-3 0 9994 2 41182 47.0018 275.8248 0002640 185.1537 174.9322 14.58657471538031 ORBCOMM FM118 1 41183U 15081E 26034.03394536 .00000788 00000+0 20382-3 0 9990 2 41183 47.0037 275.9691 0002501 140.4955 219.6114 14.58661007538148 ORBCOMM FM112 1 41184U 15081F 26034.44794041 .00001069 00000+0 26347-3 0 9991 2 41184 46.9978 182.5269 0002106 293.3430 66.7234 14.58656553539428 ORBCOMM FM113 1 41185U 15081G 26034.42520232 .00001076 00000+0 26492-3 0 9998 2 41185 46.9992 182.9977 0001750 297.3859 62.6848 14.58660031539408 ORBCOMM FM115 1 41186U 15081H 26034.39817942 .00000938 00000+0 21517-3 0 9991 2 41186 46.9997 19.4852 0000874 342.2870 17.7986 14.63046935541627 ORBCOMM FM108 1 41187U 15081J 26034.45642250 .00001162 00000+0 28315-3 0 9990 2 41187 47.0047 94.3778 0003424 289.2815 70.7700 14.58663278540551 ORBCOMM FM117 1 41188U 15081K 26034.49030726 .00001047 00000+0 25886-3 0 9996 2 41188 47.0011 92.8946 0003713 296.7527 63.2978 14.58656700540609 ORBCOMM FM116 1 41189U 15081L 26033.71748564 .00000587 00000+0 16105-3 0 9999 2 41189 47.0010 186.3268 0001858 181.0826 179.0056 14.58637756539309